Weather History for Mt. Pocono, PA

Change the Weather History Date:

Friday, January 18, 2013

  Actual Average Record
Temperature  
Mean Temperature 21 °F 23 °F  
Max Temperature 27 °F 30 °F 61 °F (1929)
Min Temperature 14 °F 15 °F -11 °F (1977)
Degree Days  
Heating Degree Days 44 42  
Month to date heating degree days 622 752  
Since 1 July heating degree days 3139 3489  
Cooling Degree Days 0 0  
Month to date cooling degree days 0 0  
Year to date cooling degree days 0 0  
Moisture  
Dew Point 7 °F    
Average Humidity 63    
Maximum Humidity 84    
Minimum Humidity 41    
Precipitation  
Precipitation T in 0.07 in 2.43 in (2006)
Month to date precipitation 0.38 1.87  
Year to date precipitation 0.38 1.87  
Sea Level Pressure  
Sea Level Pressure 30.28 in    
Wind  
Wind Speed 10 mph (WNW)    
Max Wind Speed 22 mph    
Max Gust Speed 29 mph    
Visibility 10 miles    
Events Snow    
T = Trace of Precipitation, MM = Missing Value Source: NWS Daily Summary

Daily Weather History Graph

Daily Weather History Graph

Search for Another Location

Airport:

Trip Planner

Search our weather history database for the weather conditions in past years. The results will help you decide how hot, cold, wet, or windy it might be!

Date:

Astronomy

Jan. 18, 2013 Rise Set
Actual Time 7:23 AM EST 5:01 PM EST
Civil Twilight 6:52 AM EST 5:31 PM EST
Nautical Twilight 6:19 AM EST 6:05 PM EST
Astronomical Twilight 5:46 AM EST 6:38 PM EST
Moon 10:55 AM EST (1/18) No Moon Set
Length of Visible Light 10h 38m
Length of Day
9h 38m
Waxing Crescent, 47% of the Moon is Illuminated
Jan 18
Waxing Crescent
Jan 18
First Quarter
Jan 26
Full
Feb 3
Last Quarter
Feb 10
New

Hourly Weather History & Observations

Time (EST) Temp. Windchill Dew Point Humidity Pressure Visibility Wind Dir Wind Speed Gust Speed Precip Events Conditions
12:53 AM 26.1 °F 19.4 °F 19.9 °F 78% 30.01 in 10.0 mi NNW 5.8 mph - N/A   Overcast
1:53 AM 24.1 °F 17.0 °F 19.9 °F 84% 30.06 in 10.0 mi NNW 5.8 mph - N/A   Overcast
2:53 AM 21.9 °F 17.2 °F 18.0 °F 85% 30.06 in 10.0 mi NW 3.5 mph - N/A   Clear
3:53 AM 21.0 °F 7.1 °F 15.1 °F 78% 30.09 in 10.0 mi NW 16.1 mph 19.6 mph N/A   Mostly Cloudy
4:24 AM 19.4 °F 5.0 °F 12.2 °F 74% 30.04 in 9.0 mi NW 16.1 mph 28.8 mph 0.00 in   Mostly Cloudy
4:53 AM 19.0 °F 4.5 °F 12.9 °F 77% 30.14 in 9.0 mi NW 16.1 mph 25.3 mph 0.00 in   Scattered Clouds
5:04 AM 19.4 °F 4.5 °F 12.2 °F 74% 30.07 in 6.0 mi NW 17.3 mph 23.0 mph 0.00 in Snow Light Snow
5:37 AM 17.6 °F 2.7 °F 10.4 °F 73% 30.09 in 10.0 mi NW 16.1 mph 25.3 mph 0.00 in   Scattered Clouds
5:53 AM 17.1 °F 2.0 °F 9.0 °F 71% 30.19 in 10.0 mi NW 16.1 mph 23.0 mph 0.00 in   Clear
6:53 AM 15.1 °F 0.5 °F 7.0 °F 70% 30.23 in 10.0 mi NNW 13.8 mph 25.3 mph N/A   Clear
7:53 AM 14.0 °F -1.4 °F 7.0 °F 74% 30.28 in 10.0 mi NW 15.0 mph 23.0 mph N/A   Clear
8:29 AM 14.0 °F -0.2 °F 6.8 °F 73% 30.22 in 10.0 mi NW 12.7 mph - N/A   Mostly Cloudy
8:53 AM 14.0 °F -0.8 °F 6.1 °F 71% 30.34 in 10.0 mi NW 13.8 mph 25.3 mph N/A   Scattered Clouds
9:18 AM 15.8 °F 2.7 °F 6.8 °F 68% 30.27 in 10.0 mi NW 11.5 mph - N/A   Mostly Cloudy
9:53 AM 16.0 °F 1.7 °F 5.0 °F 62% 30.39 in 10.0 mi NNW 13.8 mph 23.0 mph N/A   Mostly Cloudy
10:06 AM 15.8 °F 3.4 °F 5.0 °F 62% 30.30 in 10.0 mi NNW 10.4 mph 23.0 mph N/A   Scattered Clouds
10:53 AM 17.1 °F 3.0 °F 3.0 °F 54% 30.39 in 10.0 mi NW 13.8 mph 24.2 mph N/A   Mostly Cloudy
11:53 AM 18.0 °F 3.1 °F 1.0 °F 48% 30.39 in 10.0 mi NW 16.1 mph 24.2 mph N/A   Partly Cloudy
12:53 PM 19.0 °F 5.0 °F 1.9 °F 47% 30.39 in 10.0 mi NW 15.0 mph 23.0 mph N/A   Clear
1:53 PM 19.9 °F 8.6 °F 1.9 °F 46% 30.39 in 10.0 mi WNW 10.4 mph - N/A   Clear
2:53 PM 21.0 °F 9.9 °F 1.9 °F 44% 30.37 in 10.0 mi WNW 10.4 mph - N/A   Clear
3:53 PM 21.0 °F 9.9 °F 1.9 °F 44% 30.39 in 10.0 mi West 10.4 mph - N/A   Clear
4:53 PM 19.9 °F 9.3 °F 3.9 °F 50% 30.40 in 10.0 mi WSW 9.2 mph - N/A   Clear
5:53 PM 18.0 °F 12.7 °F 5.0 °F 57% 30.42 in 10.0 mi WSW 3.5 mph - N/A   Clear
6:53 PM 17.1 °F 10.0 °F 3.9 °F 56% 30.43 in 10.0 mi SW 4.6 mph - N/A   Clear
7:53 PM 18.0 °F 9.8 °F 3.9 °F 54% 30.41 in 10.0 mi SW 5.8 mph - N/A   Clear
8:53 PM 18.0 °F 9.8 °F 3.9 °F 54% 30.42 in 10.0 mi SW 5.8 mph - N/A   Clear
9:53 PM 19.0 °F 10.0 °F 5.0 °F 54% 30.39 in 10.0 mi SW 6.9 mph - N/A   Clear
10:53 PM 19.0 °F 9.0 °F 5.0 °F 54% 30.36 in 10.0 mi SW 8.1 mph - N/A   Clear
11:53 PM 19.0 °F 7.5 °F 6.1 °F 57% 30.34 in 10.0 mi WSW 10.4 mph 16.1 mph N/A   Clear